User: anonymous   Login
Location: Roanoke
(37.2710°N, 79.9420°W)
Time: 01:47:43
(UTC-04:00)
Language:

Cosmos 1441 Rocket - Orbit

View from above orbital plane
View from above orbital plane
View from above satellite
View from above satellite

Ground track
Ground track

The orbit data is extracted from the following two-line orbital elements,

1 13819U 83010B   15142.04076944  .00002957  00000-0  16342-3 0  9993
2 13819 081.1164 322.4229 0033700 341.6662 018.3347 15.13119092759144
Epoch (UTC): 22 May 2015 00:58:42
Eccentricity: 0.0033700
inclination: 81.1164°
perigee height: 503 km
apogee height: 550 km
right ascension of ascending node: 322.4229°
argument of perigee: 341.6662°
revolutions per day: 15.13119092
mean anomaly at epoch: 18.3347°
orbit number at epoch: 75914

The dashed part of the orbit path shows where the satellite is in the earth's shadow,  

DLR